Погода в Кингисеппе

Россия / Санкт-Петербург и Ленинградская область     59°22′26″N   28°36′40″E
темп.,
°C
ветер,
м/с
пор.,
м/с
влажн.,
%
обл.,
%
осадки,
мм/ч
давл.,
гПа
погр.,
м
27 ноября, сб
сб2700:00−1всв1287100 0.0 1001100
03:00−1св2695100 1.0 1002385
06:00−2св3793100 1.1 1003420
09:00−3св4109098 1.6 1004430
12:00−2всв41179100 0.1 1004507
15:00−2св51277100 0.1 1002650
18:00−2св51378100 0.0 1001679
21:00−3св51472100 0.0 1000732
28 ноября, вс
вс2800:00−3ссв51473100 0.0 999757
03:00−2св51379100 0.1 999761
06:00−2ссв41182100 0.1 999828
09:00−3ссв41092100 1.1 1000722
12:00−3ссв41094100 1.6 1001656
15:00−3с389397 2.9 1002598
18:00−4ссв279290 0.1 1004255
21:00−5св289484 0.1 1006265
29 ноября, пн
пн2900:00−7св2596100 0.0 1008125
03:00−6всв2796100 0.0 1008231
06:00−6всв3890100 0.0 1007434
09:00−6в3988100 0.0 1007494
12:00−5всв3986100 0.0 1005457
15:00−5всв4985100 0.0 1002436
18:00−6св41188100 0.0 999431
21:00−5св41194100 1.1 996469
30 ноября, вт
вт3000:00−4ссв41194100 1.2 992553
03:00−4ссв41194100 2.0 988600
06:00−4с41095100 1.6 985671
09:00−3с41095100 3.3 984802
12:00−4ссз5993100 1.2 984702
15:00−4ссз4109396 1.8 984797
18:00−5сз31095100 0.4 984672
21:00−5зсз4995100 0.9 984710
1 декабря, ср
ср100:00−5зсз4994100 0.6 985780
03:00−5з3995100 1.2 986818
06:00−6зюз4995100 1.0 986671
09:00−7зюз41094100 2.1 987550
12:00−6зюз41093100 1.0 988586
15:00−5з4109497 2.4 988691
18:00−5зюз5109398 2.2 989765
21:00−6зюз5129096 4.1 989662